Track STARLINK-2421 now! 10-day predictions STARLINK-2421 is classified as:
1 48098U 21027G 22186.37958190 -.00002265 00000-0 -13323-3 0 9994 2 48098 53.0562 71.9855 0001514 68.9908 291.1243 15.06395077 70088